Location: Newark
(39.0622°N, 106.5590°E)
Time: 00:49:05
(UTC+00:00)

UWE-3 - Pass Details

Date: 29 February 2020
Orbit: 585 x 682 km, 97.6° (Epoch: 27 March)

Event Time Altitude Azimuth Distance (km) Brightness Sun altitude
Rises 22:43:14 0° 6° (N) 3,051 ? -9.2°
Reaches altitude 10° 22:45:31 10° 2° (N) 2,133 ? -8.7°
Maximum altitude 22:50:04 53° 286° (WNW) 839 ? -7.8°
Drops below altitude 10° 22:54:32 10° 210° (SSW) 2,101 ? -7.0°
Sets 22:56:47 0° 206° (SSW) 3,001 ? -6.5°
